,,,PA_Meas_PMT16A,,PR_Meas_QMR101_102,,RH_Meas_QMH101,,SR_Meas_QMS101,,TA_Meas_QMH101,,GenWind,,GenWind,
date,time,status,PA,status,PR,status,RH,status,SR,status,TA,status,DirAvg,status,SpdAvg,
2008-04-28, 00:00:04,VALID,1003.35,VALID,0,VALID,89.6241,VALID,0,VALID,25.4383,VALID,348,VALID,0.950391,
2008-04-28, 00:01:04,VALID,1003.33,VALID,0,VALID,89.5631,VALID,0,VALID,25.4383,VALID,342,VALID,1.13516,
2008-04-28, 00:02:04,VALID,1003.33,VALID,0,VALID,89.5402,VALID,0,VALID,25.4577,VALID,352,VALID,0.905859,
2008-04-28, 00:03:04,VALID,1003.33,VALID,0,VALID,89.5478,VALID,0,VALID,25.4577,VALID,357,VALID,0.909375,
2008-04-28, 00:04:04,VALID,1003.31,VALID,0,VALID,89.5402,VALID,0,VALID,25.4383,VALID,346,VALID,0.767969,
2008-04-28, 00:05:04,VALID,1003.31,VALID,0,VALID,89.5173,VALID,0,VALID,25.4383,VALID,350,VALID,0.968359,
2008-04-28, 00:06:04,VALID,1003.28,VALID,0,VALID,89.5097,VALID,0,VALID,25.4577,VALID,318,VALID,0.760547,
2008-04-28, 00:07:04,VALID,1003.29,VALID,0,VALID,89.5554,VALID,0,VALID,25.4383,VALID,358,VALID,1.45313,
2008-04-28, 00:08:04,VALID,1003.24,VALID,0,VALID,89.502,VALID,0,VALID,25.4772,VALID,357,VALID,0.907422,
2008-04-28, 00:09:04,VALID,1003.21,VALID,0,VALID,89.4868,VALID,0,VALID,25.4577,VALID,343,VALID,0.510938,
2008-04-28, 00:10:04,VALID,1003.21,VALID,0,VALID,89.5097,VALID,0,VALID,25.4772,VALID,30,VALID,0.827734,
2008-04-28, 00:11:04,VALID,1003.2,VALID,0,VALID,89.5097,VALID,0,VALID,25.4577,VALID,359,VALID,1.17148,
2008-04-28, 00:12:04,VALID,1003.18,VALID,0,VALID,89.4639,VALID,0,VALID,25.4792,VALID,359,VALID,1.61719,
2008-04-28, 00:13:04,VALID,1003.16,VALID,0,VALID,89.4639,VALID,0,VALID,25.4986,VALID,344,VALID,0.666797,
2008-04-28, 00:14:04,VALID,1003.14,VALID,0,VALID,89.502,VALID,0,VALID,25.4772,VALID,355,VALID,0.753125,
2008-04-28, 00:15:04,VALID,1003.1,VALID,0,VALID,89.5554,VALID,0,VALID,25.4383,VALID,353,VALID,1.04141,
2008-04-28, 00:16:04,VALID,1003.06,VALID,0,VALID,89.6317,VALID,0,VALID,25.4188,VALID,359,VALID,1.02539,
2008-04-28, 00:17:04,VALID,1003.06,VALID,0,VALID,89.6775,VALID,0,VALID,25.4188,VALID,344,VALID,0.872266,
2008-04-28, 00:18:04,VALID,1003.05,VALID,0,VALID,89.6851,VALID,0,VALID,25.4207,VALID,343,VALID,1.38008,
2008-04-28, 00:19:04,VALID,1003.03,VALID,0,VALID,89.6775,VALID,0,VALID,25.4402,VALID,354,VALID,0.747266,
2008-04-28, 00:20:04,VALID,1003.02,VALID,0,VALID,89.7156,VALID,0,VALID,25.3993,VALID,354,VALID,0.889844,
2008-04-28, 00:21:04,VALID,1003.03,VALID,0,VALID,89.769,VALID,0,VALID,25.4012,VALID,348,VALID,0.615234,
2008-04-28, 00:22:04,VALID,1003.01,VALID,0,VALID,89.8224,VALID,0,VALID,25.3818,VALID,353,VALID,0.755078,
2008-04-28, 00:23:04,VALID,1002.98,VALID,0,VALID,89.8377,VALID,0,VALID,25.3818,VALID,342,VALID,0.859766,
2008-04-28, 00:24:04,VALID,1002.96,VALID,0,VALID,89.8758,VALID,0,VALID,25.3779,VALID,304,VALID,0.557031,
2008-04-28, 00:25:04,VALID,1002.95,VALID,0,VALID,89.8301,VALID,0.100563,VALID,25.3779,VALID,287,VALID,0.269531,
2008-04-28, 00:26:04,VALID,1002.92,VALID,0,VALID,89.8148,VALID,0,VALID,25.3798,VALID,325,VALID,0.237891,
2008-04-28, 00:27:04,VALID,1002.9,VALID,0,VALID,89.7996,VALID,0,VALID,25.337,VALID,331,VALID,0.569922,
2008-04-28, 00:28:04,VALID,1002.86,VALID,0,VALID,89.8453,VALID,0,VALID,25.3584,VALID,347,VALID,0.174219,
2008-04-28, 00:29:04,VALID,1002.87,VALID,0,VALID,89.8301,VALID,0,VALID,25.339,VALID,359,VALID,0.507422,
2008-04-28, 00:30:04,VALID,1002.86,VALID,0,VALID,89.9216,VALID,0,VALID,25.3195,VALID,338,VALID,0.948828,
2008-04-28, 00:31:04,VALID,1002.87,VALID,0,VALID,90.0055,VALID,0,VALID,25.3214,VALID,303,VALID,0.553516,
2008-04-28, 00:32:04,VALID,1002.88,VALID,0,VALID,90.0589,VALID,0.100563,VALID,25.3214,VALID,360,VALID,0.358594,
2008-04-28, 00:33:04,VALID,1002.93,VALID,0,VALID,90.12,VALID,0,VALID,25.3019,VALID,347,VALID,0.358594,
2008-04-28, 00:34:04,VALID,1002.94,VALID,0,VALID,90.2115,VALID,0,VALID,25.3019,VALID,351,VALID,0.682813,
2008-04-28, 00:35:04,VALID,1002.95,VALID,0,VALID,90.242,VALID,0,VALID,25.3214,VALID,1,VALID,0.891797,
2008-04-28, 00:36:04,VALID,1002.98,VALID,0,VALID,90.1886,VALID,0,VALID,25.3,VALID,350,VALID,0.735937,
2008-04-28, 00:37:04,VALID,1002.96,VALID,0,VALID,90.2191,VALID,0,VALID,25.3214,VALID,1,VALID,0.573047,
2008-04-28, 00:38:04,VALID,1002.96,VALID,0,VALID,90.2115,VALID,0,VALID,25.3409,VALID,345,VALID,1.5,
2008-04-28, 00:39:04,VALID,1003.01,VALID,0,VALID,90.1276,VALID,0,VALID,25.3818,VALID,357,VALID,0.984375,
2008-04-28, 00:40:04,VALID,1003.01,VALID,0,VALID,90.0132,VALID,0,VALID,25.3993,VALID,348,VALID,1.22383,
2008-04-28, 00:41:04,VALID,1002.99,VALID,0,VALID,89.9216,VALID,0,VALID,25.4383,VALID,2,VALID,0.812109,
2008-04-28, 00:42:04,VALID,1003.01,VALID,0,VALID,89.8377,VALID,0,VALID,25.4577,VALID,360,VALID,1.00977,
2008-04-28, 00:43:04,VALID,1003.01,VALID,0,VALID,89.7156,VALID,0,VALID,25.4986,VALID,334,VALID,0.908594,
2008-04-28, 00:44:04,VALID,1003.02,VALID,0,VALID,89.6241,VALID,0,VALID,25.5181,VALID,345,VALID,1.21758,
2008-04-28, 00:45:04,VALID,1003,VALID,0,VALID,89.4791,VALID,0,VALID,25.5571,VALID,1,VALID,1.13125,
2008-04-28, 00:46:04,VALID,1003,VALID,0,VALID,89.3647,VALID,0,VALID,25.5551,VALID,338,VALID,0.897656,
2008-04-28, 00:47:04,VALID,1003.03,VALID,0,VALID,89.3723,VALID,0,VALID,25.5746,VALID,4,VALID,1.01523,
2008-04-28, 00:48:04,VALID,1003.04,VALID,0,VALID,89.296,VALID,0,VALID,25.6155,VALID,347,VALID,0.925391,
2008-04-28, 00:49:04,VALID,1003.05,VALID,0,VALID,89.1969,VALID,0,VALID,25.635,VALID,360,VALID,1.26992,
2008-04-28, 00:50:04,VALID,1003.07,VALID,0,VALID,89.0672,VALID,0,VALID,25.635,VALID,339,VALID,0.351953,
2008-04-28, 00:51:04,VALID,1003.03,VALID,0,VALID,88.9909,VALID,0,VALID,25.635,VALID,354,VALID,1.03555,
2008-04-28, 00:52:04,VALID,1003.03,VALID,0,VALID,88.7849,VALID,0,VALID,25.6545,VALID,354,VALID,1.6625,
2008-04-28, 00:53:04,VALID,1003.02,VALID,0,VALID,88.6934,VALID,0,VALID,25.6525,VALID,242,VALID,0.479297,
2008-04-28, 00:54:04,VALID,1002.96,VALID,0,VALID,88.5484,VALID,0,VALID,25.6934,VALID,360,VALID,0.557813,
2008-04-28, 00:55:04,VALID,1002.94,VALID,0,VALID,88.5866,VALID,0,VALID,25.6525,VALID,329,VALID,0.916406,
2008-04-28, 00:56:04,VALID,1002.93,VALID,0,VALID,88.5637,VALID,0,VALID,25.633,VALID,16,VALID,0.385156,
2008-04-28, 00:57:04,VALID,1002.92,VALID,0,VALID,88.6247,VALID,0,VALID,25.635,VALID,345,VALID,0.970312,
2008-04-28, 00:58:04,VALID,1002.89,VALID,0,VALID,88.6628,VALID,0,VALID,25.6136,VALID,348,VALID,0.389453,
2008-04-28, 00:59:04,VALID,1002.88,VALID,0,VALID,88.7239,VALID,0,VALID,25.596,VALID,311,VALID,0.524219,
2008-04-28, 01:00:04,VALID,1002.89,VALID,0,VALID,88.8002,VALID,0,VALID,25.5551,VALID,355,VALID,1.06992,
2008-04-28, 01:01:04,VALID,1002.88,VALID,0,VALID,88.8841,VALID,0,VALID,25.5765,VALID,345,VALID,0.804688,
2008-04-28, 01:02:04,VALID,1002.9,VALID,0,VALID,88.9604,VALID,0,VALID,25.5571,VALID,357,VALID,0.808594,
2008-04-28, 01:03:04,VALID,1002.86,VALID,0,VALID,89.0367,VALID,0,VALID,25.5376,VALID,358,VALID,1.18125,
2008-04-28, 01:04:04,VALID,1002.85,VALID,0,VALID,89.0977,VALID,0,VALID,25.5162,VALID,347,VALID,0.944141,
2008-04-28, 01:05:04,VALID,1002.84,VALID,0,VALID,89.1664,VALID,0,VALID,25.5162,VALID,11,VALID,0.458984,
2008-04-28, 01:06:04,VALID,1002.86,VALID,0,VALID,89.2121,VALID,0,VALID,25.4772,VALID,360,VALID,0.219141,
2008-04-28, 01:07:04,VALID,1002.82,VALID,0,VALID,89.235,VALID,0,VALID,25.4986,VALID,351,VALID,1.15859,
2008-04-28, 01:08:04,VALID,1002.83,VALID,0,VALID,89.2503,VALID,0,VALID,25.4986,VALID,346,VALID,0.558203,
2008-04-28, 01:09:04,VALID,1002.79,VALID,0,VALID,89.2426,VALID,0.100563,VALID,25.4948,VALID,360,VALID,0.997266,
2008-04-28, 01:10:04,VALID,1002.78,VALID,0,VALID,89.2579,VALID,0.100563,VALID,25.5142,VALID,342,VALID,0.325,
2008-04-28, 01:11:04,VALID,1002.79,VALID,0,VALID,89.174,VALID,0,VALID,25.5357,VALID,341,VALID,0.496094,
2008-04-28, 01:12:04,VALID,1002.79,VALID,0,VALID,89.174,VALID,0,VALID,25.4948,VALID,346,VALID,0.898828,
2008-04-28, 01:13:04,VALID,1002.79,VALID,0,VALID,89.1511,VALID,0.100563,VALID,25.5142,VALID,352,VALID,0.869141,
2008-04-28, 01:14:04,VALID,1002.77,VALID,0,VALID,89.1435,VALID,0.100563,VALID,25.5142,VALID,351,VALID,0.504297,
2008-04-28, 01:15:04,VALID,1002.76,VALID,0,VALID,89.1892,VALID,0.100563,VALID,25.5142,VALID,332,VALID,0.459375,
2008-04-28, 01:16:04,VALID,1002.76,VALID,0,VALID,89.2274,VALID,0,VALID,25.4948,VALID,351,VALID,0.648828,
2008-04-28, 01:17:04,VALID,1002.74,VALID,0,VALID,89.2426,VALID,0,VALID,25.4948,VALID,329,VALID,0.737891,
2008-04-28, 01:18:04,VALID,1002.74,VALID,0,VALID,89.3571,VALID,0.100563,VALID,25.5162,VALID,339,VALID,0.0816406,
2008-04-28, 01:19:04,VALID,1002.73,VALID,0,VALID,89.3571,VALID,0.100563,VALID,25.4753,VALID,339,VALID,0.305078,
2008-04-28, 01:20:04,VALID,1002.75,VALID,0,VALID,89.441,VALID,0.100563,VALID,25.4753,VALID,350,VALID,0.691016,
2008-04-28, 01:21:04,VALID,1002.71,VALID,0,VALID,89.5097,VALID,0,VALID,25.4558,VALID,356,VALID,1.29219,
2008-04-28, 01:22:04,VALID,1002.7,VALID,0,VALID,89.5325,VALID,0.100563,VALID,25.4753,VALID,1,VALID,1.0668,
2008-04-28, 01:23:04,VALID,1002.68,VALID,0,VALID,89.5173,VALID,0.100563,VALID,25.4753,VALID,351,VALID,0.602344,
2008-04-28, 01:24:04,VALID,1002.67,VALID,0,VALID,89.502,VALID,0,VALID,25.4986,VALID,347,VALID,0.601172,
2008-04-28, 01:25:04,VALID,1002.64,VALID,0,VALID,89.5249,VALID,0,VALID,25.4577,VALID,345,VALID,0.654297,
2008-04-28, 01:26:04,VALID,1002.69,VALID,0,VALID,89.5783,VALID,0,VALID,25.4383,VALID,322,VALID,0.821484,
2008-04-28, 01:27:04,VALID,1002.68,VALID,0,VALID,89.6546,VALID,0,VALID,25.4383,VALID,337,VALID,0.750391,
2008-04-28, 01:28:04,VALID,1002.67,VALID,0,VALID,89.7309,VALID,0,VALID,25.4383,VALID,339,VALID,1.01016,
2008-04-28, 01:29:04,VALID,1002.65,VALID,0,VALID,89.708,VALID,0,VALID,25.4383,VALID,351,VALID,0.503906,
2008-04-28, 01:30:04,VALID,1002.65,VALID,0,VALID,89.7156,VALID,0,VALID,25.4383,VALID,360,VALID,0.546875,
2008-04-28, 01:31:04,VALID,1002.65,VALID,0,VALID,89.769,VALID,0,VALID,25.4188,VALID,352,VALID,0.618359,
2008-04-28, 01:32:04,VALID,1002.62,VALID,0,VALID,89.7843,VALID,0,VALID,25.4188,VALID,347,VALID,0.424609,
2008-04-28, 01:33:04,VALID,1002.59,VALID,0,VALID,89.8072,VALID,0,VALID,25.4188,VALID,301,VALID,0.689844,
2008-04-28, 01:34:04,VALID,1002.61,VALID,0,VALID,89.7843,VALID,0,VALID,25.4597,VALID,321,VALID,0.298438,
2008-04-28, 01:35:04,VALID,1002.56,VALID,0,VALID,89.7461,VALID,0,VALID,25.4188,VALID,299,VALID,0.557422,
2008-04-28, 01:36:04,VALID,1002.52,VALID,0,VALID,89.7309,VALID,0,VALID,25.3993,VALID,351,VALID,0.516016,
2008-04-28, 01:37:04,VALID,1002.51,VALID,0,VALID,89.8987,VALID,0,VALID,25.3798,VALID,324,VALID,0.398438,
2008-04-28, 01:38:04,VALID,1002.49,VALID,0,VALID,89.9826,VALID,0,VALID,25.3798,VALID,359,VALID,0.75625,
2008-04-28, 01:39:04,VALID,1002.44,VALID,0,VALID,90.0055,VALID,0,VALID,25.3604,VALID,16,VALID,0.514844,
2008-04-28, 01:40:04,VALID,1002.4,VALID,0,VALID,90.12,VALID,0,VALID,25.3604,VALID,346,VALID,0.795703,
2008-04-28, 01:41:04,VALID,1002.38,VALID,0,VALID,90.12,VALID,0,VALID,25.3604,VALID,350,VALID,0.187891,
2008-04-28, 01:42:04,VALID,1002.32,VALID,0,VALID,90.1429,VALID,0,VALID,25.3409,VALID,352,VALID,0.624609,
2008-04-28, 01:43:04,VALID,1002.33,VALID,0,VALID,90.2268,VALID,0,VALID,25.3214,VALID,1,VALID,0.697656,
2008-04-28, 01:44:04,VALID,1002.27,VALID,0,VALID,90.2802,VALID,0,VALID,25.3409,VALID,356,VALID,0.707422,
2008-04-28, 01:45:04,VALID,1002.26,VALID,0,VALID,90.3183,VALID,0,VALID,25.3019,VALID,1,VALID,0.749219,
2008-04-28, 01:46:04,VALID,1002.22,VALID,0,VALID,90.509,VALID,0,VALID,25.2825,VALID,350,VALID,0.880078,
2008-04-28, 01:47:04,VALID,1002.23,VALID,0,VALID,90.6311,VALID,0,VALID,25.2844,VALID,358,VALID,0.7625,
2008-04-28, 01:48:04,VALID,1002.2,VALID,0,VALID,90.7074,VALID,0,VALID,25.263,VALID,356,VALID,1.13086,
2008-04-28, 01:49:04,VALID,1002.16,VALID,0,VALID,90.8676,VALID,0,VALID,25.2844,VALID,344,VALID,0.624219,
2008-04-28, 01:50:04,VALID,1002.22,VALID,0,VALID,90.982,VALID,0,VALID,25.2825,VALID,337,VALID,1.15977,
2008-04-28, 01:51:04,VALID,1002.19,VALID,0,VALID,90.9897,VALID,0,VALID,25.3233,VALID,341,VALID,0.762109,
2008-04-28, 01:52:04,VALID,1002.23,VALID,0,VALID,90.9134,VALID,0,VALID,25.3409,VALID,343,VALID,0.811719,
2008-04-28, 01:53:04,VALID,1002.22,VALID,0,VALID,90.9286,VALID,0,VALID,25.3993,VALID,353,VALID,1.725,
2008-04-28, 01:54:04,VALID,1002.2,VALID,0,VALID,90.6235,VALID,0,VALID,25.4792,VALID,352,VALID,1.39922,
2008-04-28, 01:55:04,VALID,1002.23,VALID,0,VALID,90.4175,VALID,0,VALID,25.4967,VALID,352,VALID,0.823438,
2008-04-28, 01:56:04,VALID,1002.24,VALID,0,VALID,90.2878,VALID,0,VALID,25.5162,VALID,351,VALID,1.23086,
2008-04-28, 01:57:04,VALID,1002.23,VALID,0,VALID,90.2497,VALID,0,VALID,25.5746,VALID,327,VALID,1.58945,
2008-04-28, 01:58:04,VALID,1002.22,VALID,0,VALID,89.914,VALID,0,VALID,25.6525,VALID,6,VALID,1.36094,
2008-04-28, 01:59:04,VALID,1002.21,VALID,0,VALID,89.7309,VALID,0,VALID,25.672,VALID,347,VALID,0.758594,
2008-04-28, 02:00:04,VALID,1002.21,VALID,0,VALID,89.6012,VALID,0,VALID,25.672,VALID,348,VALID,1.31758,
2008-04-28, 02:01:04,VALID,1002.19,VALID,0,VALID,89.5249,VALID,0,VALID,25.6915,VALID,323,VALID,0.569922,
2008-04-28, 02:02:04,VALID,1002.18,VALID,0,VALID,89.502,VALID,0,VALID,25.6934,VALID,1,VALID,0.886719,
2008-04-28, 02:03:04,VALID,1002.17,VALID,0,VALID,89.4944,VALID,0,VALID,25.6525,VALID,341,VALID,0.960547,
2008-04-28, 02:04:04,VALID,1002.2,VALID,0,VALID,89.4715,VALID,0,VALID,25.6739,VALID,352,VALID,0.255469,
2008-04-28, 02:05:04,VALID,1002.16,VALID,0,VALID,89.3876,VALID,0,VALID,25.6739,VALID,350,VALID,2.25703,
2008-04-28, 02:06:04,VALID,1002.16,VALID,0,VALID,89.3342,VALID,0,VALID,25.6739,VALID,359,VALID,0.903125,
2008-04-28, 02:07:04,VALID,1002.18,VALID,0,VALID,89.3113,VALID,0,VALID,25.633,VALID,348,VALID,1.24023,
2008-04-28, 02:08:04,VALID,1002.16,VALID,0,VALID,89.2732,VALID,0,VALID,25.633,VALID,337,VALID,1.11875,
2008-04-28, 02:09:04,VALID,1002.21,VALID,0,VALID,89.3113,VALID,0.100563,VALID,25.6136,VALID,358,VALID,0.662109,
2008-04-28, 02:10:04,VALID,1002.19,VALID,0,VALID,89.3876,VALID,0.100563,VALID,25.5941,VALID,352,VALID,1.00703,
2008-04-28, 02:11:04,VALID,1002.2,VALID,0,VALID,89.4791,VALID,0.100563,VALID,25.5765,VALID,353,VALID,1.12578,
2008-04-28, 02:12:04,VALID,1002.17,VALID,0,VALID,89.5936,VALID,0.100563,VALID,25.5142,VALID,355,VALID,1.97734,
2008-04-28, 02:13:04,VALID,1002.2,VALID,0,VALID,89.6165,VALID,0.100563,VALID,25.5357,VALID,326,VALID,0.785547,
2008-04-28, 02:14:04,VALID,1002.25,VALID,0,VALID,89.7004,VALID,0,VALID,25.4753,VALID,347,VALID,0.777344,
2008-04-28, 02:15:04,VALID,1002.25,VALID,0,VALID,89.8148,VALID,0,VALID,25.4753,VALID,351,VALID,1.56055,
2008-04-28, 02:16:04,VALID,1002.27,VALID,0,VALID,89.7614,VALID,0,VALID,25.4967,VALID,360,VALID,0.846875,
2008-04-28, 02:17:04,VALID,1002.3,VALID,0,VALID,89.769,VALID,0.100563,VALID,25.4753,VALID,337,VALID,0.769141,
2008-04-28, 02:18:04,VALID,1002.35,VALID,0,VALID,89.8301,VALID,0.100563,VALID,25.4967,VALID,355,VALID,0.892187,
2008-04-28, 02:19:04,VALID,1002.35,VALID,0,VALID,89.9369,VALID,0.100563,VALID,25.4753,VALID,308,VALID,0.414844,
2008-04-28, 02:20:04,VALID,1002.36,VALID,0,VALID,89.8148,VALID,0,VALID,25.5142,VALID,339,VALID,1.06055,
2008-04-28, 02:21:04,VALID,1002.38,VALID,0,VALID,89.7156,VALID,0.100563,VALID,25.5532,VALID,321,VALID,0.343359,
2008-04-28, 02:22:04,VALID,1002.43,VALID,0,VALID,89.5707,VALID,0.100563,VALID,25.5727,VALID,278,VALID,0.635938,
2008-04-28, 02:23:04,VALID,1002.47,VALID,0,VALID,89.2045,VALID,0.100563,VALID,25.5727,VALID,238,VALID,1.35977,
2008-04-28, 02:24:04,VALID,1002.5,VALID,0,VALID,89.1587,VALID,0,VALID,25.5162,VALID,240,VALID,0.827344,
2008-04-28, 02:25:04,VALID,1002.54,VALID,0,VALID,89.4791,VALID,0,VALID,25.4383,VALID,273,VALID,0.410156,
2008-04-28, 02:26:04,VALID,1002.53,VALID,0,VALID,89.5783,VALID,0,VALID,25.3993,VALID,282,VALID,0.5125,
2008-04-28, 02:27:04,VALID,1002.61,VALID,0,VALID,89.9216,VALID,0,VALID,25.3818,VALID,289,VALID,0.557813,
2008-04-28, 02:28:04,VALID,1002.6,VALID,0,VALID,90.036,VALID,0,VALID,25.3428,VALID,310,VALID,0.622266,
2008-04-28, 02:29:04,VALID,1002.66,VALID,0,VALID,90.0742,VALID,0,VALID,25.3039,VALID,298,VALID,1.6043,
2008-04-28, 02:30:04,VALID,1002.64,VALID,0,VALID,90.448,VALID,0,VALID,25.263,VALID,286,VALID,0.876562,
2008-04-28, 02:31:04,VALID,1002.7,VALID,0,VALID,90.9057,VALID,0,VALID,25.2649,VALID,278,VALID,0.787891,
2008-04-28, 02:32:04,VALID,1002.7,VALID,0,VALID,90.8752,VALID,0,VALID,25.2435,VALID,299,VALID,0.941016,
2008-04-28, 02:33:04,VALID,1002.69,VALID,0,VALID,88.9985,VALID,0,VALID,25.1461,VALID,304,VALID,2.48945,
2008-04-28, 02:34:04,VALID,1002.74,VALID,0,VALID,89.9064,VALID,0,VALID,25.0877,VALID,292,VALID,2.4207,
2008-04-28, 02:35:04,VALID,1002.8,VALID,0,VALID,90.2725,VALID,0,VALID,25.0507,VALID,305,VALID,1.18789,
2008-04-28, 02:36:04,VALID,1002.78,VALID,0,VALID,91.0354,VALID,0,VALID,24.9728,VALID,299,VALID,0.912109,
2008-04-28, 02:37:04,VALID,1002.79,VALID,0,VALID,91.6534,VALID,0,VALID,24.9143,VALID,276,VALID,0.321094,
2008-04-28, 02:38:04,VALID,1002.8,VALID,0.5,VALID,91.9662,VALID,0,VALID,24.854,VALID,346,VALID,0.685547,
2008-04-28, 02:39:04,VALID,1002.83,VALID,0,VALID,92.2637,VALID,0,VALID,24.7956,VALID,327,VALID,0.755469,
2008-04-28, 02:40:04,VALID,1002.88,VALID,0,VALID,92.2027,VALID,0,VALID,24.7761,VALID,291,VALID,1.4418,
2008-04-28, 02:41:04,VALID,1002.9,VALID,0,VALID,92.5002,VALID,0,VALID,24.778,VALID,287,VALID,0.989453,
2008-04-28, 02:42:04,VALID,1002.87,VALID,0,VALID,92.8282,VALID,0,VALID,24.7372,VALID,257,VALID,0.578516,
2008-04-28, 02:43:04,VALID,1002.86,VALID,0,VALID,92.9198,VALID,0,VALID,24.7177,VALID,304,VALID,0.938672,
2008-04-28, 02:44:04,VALID,1002.86,VALID,0,VALID,92.9503,VALID,0,VALID,24.7391,VALID,300,VALID,1.20469,
2008-04-28, 02:45:04,VALID,1002.86,VALID,0,VALID,93.1105,VALID,0,VALID,24.7372,VALID,311,VALID,0.746484,
2008-04-28, 02:46:04,VALID,1002.82,VALID,0,VALID,93.1105,VALID,0,VALID,24.7177,VALID,284,VALID,0.915234,
2008-04-28, 02:47:04,VALID,1002.8,VALID,0,VALID,93.3165,VALID,0,VALID,24.7372,VALID,335,VALID,0.442578,
2008-04-28, 02:48:04,VALID,1002.81,VALID,0,VALID,93.4156,VALID,0,VALID,24.778,VALID,335,VALID,0,
2008-04-28, 02:49:04,VALID,1002.81,VALID,0,VALID,93.408,VALID,0,VALID,24.7372,VALID,291,VALID,0.549609,
2008-04-28, 02:50:04,VALID,1002.82,VALID,0,VALID,93.3317,VALID,0,VALID,24.7586,VALID,321,VALID,0.5875,
2008-04-28, 02:51:04,VALID,1002.81,VALID,0,VALID,93.1791,VALID,0,VALID,24.7391,VALID,305,VALID,0.600391,
2008-04-28, 02:52:04,VALID,1002.83,VALID,0,VALID,93.3928,VALID,0,VALID,24.7177,VALID,344,VALID,0.453516,
2008-04-28, 02:53:04,VALID,1002.8,VALID,0,VALID,93.4004,VALID,0,VALID,24.7391,VALID,345,VALID,0.286328,
2008-04-28, 02:54:04,VALID,1002.8,VALID,0,VALID,93.5224,VALID,0.100563,VALID,24.7159,VALID,345,VALID,0,
2008-04-28, 02:55:04,VALID,1002.8,VALID,0,VALID,93.553,VALID,0,VALID,24.7196,VALID,346,VALID,0.273438,
2008-04-28, 02:56:04,VALID,1002.77,VALID,0,VALID,93.6369,VALID,0,VALID,24.7196,VALID,347,VALID,0.534375,
2008-04-28, 02:57:04,VALID,1002.78,VALID,0,VALID,93.8123,VALID,0,VALID,24.7001,VALID,349,VALID,0.474609,
2008-04-28, 02:58:04,VALID,1002.78,VALID,0,VALID,93.8581,VALID,0,VALID,24.6807,VALID,349,VALID,0.458594,
2008-04-28, 02:59:04,VALID,1002.76,VALID,0,VALID,93.8886,VALID,0,VALID,24.6612,VALID,348,VALID,0.432031,
2008-04-28, 03:00:04,VALID,1002.8,VALID,0,VALID,94.1022,VALID,0,VALID,24.6593,VALID,328,VALID,0.192578,
2008-04-28, 03:01:04,VALID,1002.84,VALID,0,VALID,94.0641,VALID,0,VALID,24.6612,VALID,254,VALID,0.510156,
2008-04-28, 03:02:04,VALID,1002.83,VALID,0,VALID,94.1328,VALID,0,VALID,24.6204,VALID,245,VALID,0.487891,
2008-04-28, 03:03:04,VALID,1002.8,VALID,0,VALID,94.1556,VALID,0,VALID,24.6009,VALID,245,VALID,0.327734,
2008-04-28, 03:04:04,VALID,1002.83,VALID,0,VALID,94.2548,VALID,0,VALID,24.6009,VALID,245,VALID,0.396875,
2008-04-28, 03:05:04,VALID,1002.86,VALID,0,VALID,94.3235,VALID,0,VALID,24.5814,VALID,245,VALID,0.382422,
2008-04-28, 03:06:04,VALID,1002.85,VALID,0,VALID,94.4455,VALID,0,VALID,24.6222,VALID,234,VALID,0.547266,
2008-04-28, 03:07:04,VALID,1002.89,VALID,0,VALID,94.5066,VALID,0,VALID,24.6028,VALID,216,VALID,0.646094,
2008-04-28, 03:08:04,VALID,1002.94,VALID,0,VALID,94.5447,VALID,0,VALID,24.6028,VALID,209,VALID,0.5625,
2008-04-28, 03:09:04,VALID,1002.97,VALID,0,VALID,94.682,VALID,0.100563,VALID,24.5796,VALID,209,VALID,0.446094,
2008-04-28, 03:10:04,VALID,1003,VALID,0,VALID,94.7583,VALID,0.100563,VALID,24.5796,VALID,209,VALID,0.310937,
2008-04-28, 03:11:04,VALID,1003.05,VALID,0,VALID,94.6897,VALID,0.100563,VALID,24.5814,VALID,209,VALID,0.175781,
2008-04-28, 03:12:04,VALID,1003.08,VALID,0,VALID,94.6668,VALID,0.100563,VALID,24.562,VALID,209,VALID,0.144141,
2008-04-28, 03:13:04,VALID,1003.07,VALID,0,VALID,94.682,VALID,0.100563,VALID,24.5601,VALID,209,VALID,0.297656,
2008-04-28, 03:14:04,VALID,1003.14,VALID,0,VALID,94.7507,VALID,0.100563,VALID,24.6009,VALID,209,VALID,0,
2008-04-28, 03:15:04,VALID,1003.12,VALID,0,VALID,94.6668,VALID,0.100563,VALID,24.5796,VALID,209,VALID,0,
2008-04-28, 03:16:04,VALID,1003.16,VALID,0,VALID,94.6897,VALID,0.100563,VALID,24.5796,VALID,209,VALID,0,
2008-04-28, 03:17:04,VALID,1003.15,VALID,0,VALID,94.7125,VALID,0.100563,VALID,24.599,VALID,209,VALID,0,
2008-04-28, 03:18:04,VALID,1003.17,VALID,0,VALID,94.8194,VALID,0.100563,VALID,24.6398,VALID,209,VALID,0,
2008-04-28, 03:19:04,VALID,1003.19,VALID,0,VALID,94.7812,VALID,0.100563,VALID,24.6398,VALID,283,VALID,0.732031,
2008-04-28, 03:20:04,VALID,1003.24,VALID,0,VALID,94.8041,VALID,0.100563,VALID,24.6185,VALID,348,VALID,0.715234,
2008-04-28, 03:21:04,VALID,1003.26,VALID,0,VALID,94.8651,VALID,0.100563,VALID,24.6398,VALID,356,VALID,1.00469,
2008-04-28, 03:22:04,VALID,1003.25,VALID,0,VALID,94.8041,VALID,0.100563,VALID,24.638,VALID,334,VALID,1.29844,
2008-04-28, 03:23:04,VALID,1003.28,VALID,0,VALID,94.4989,VALID,0,VALID,24.6185,VALID,298,VALID,2.0043,
2008-04-28, 03:24:04,VALID,1003.29,VALID,0,VALID,94.56,VALID,0,VALID,24.6807,VALID,315,VALID,0.265625,
2008-04-28, 03:25:04,VALID,1003.31,VALID,0,VALID,94.3692,VALID,0,VALID,24.7196,VALID,282,VALID,0.721094,
2008-04-28, 03:26:04,VALID,1003.33,VALID,0,VALID,94.0794,VALID,0,VALID,24.6788,VALID,298,VALID,1.8168,
2008-04-28, 03:27:04,VALID,1003.38,VALID,0.5,VALID,94.1404,VALID,0,VALID,24.6788,VALID,319,VALID,1.34687,
2008-04-28, 03:28:04,VALID,1003.42,VALID,0,VALID,93.7666,VALID,0,VALID,24.6204,VALID,345,VALID,2.42383,
2008-04-28, 03:29:04,VALID,1003.37,VALID,0.5,VALID,94.0946,VALID,0,VALID,24.6028,VALID,293,VALID,0.991016,
2008-04-28, 03:30:04,VALID,1003.4,VALID,0,VALID,94.148,VALID,0,VALID,24.5035,VALID,260,VALID,0.623828,
2008-04-28, 03:31:04,VALID,1003.41,VALID,0.5,VALID,94.2624,VALID,0,VALID,24.4257,VALID,319,VALID,0.809766,
2008-04-28, 03:32:04,VALID,1003.41,VALID,0,VALID,94.3006,VALID,0,VALID,24.3673,VALID,3,VALID,2.01875,
2008-04-28, 03:33:04,VALID,1003.41,VALID,0.5,VALID,94.5066,VALID,0,VALID,24.2894,VALID,325,VALID,1.06172,
2008-04-28, 03:34:04,VALID,1003.35,VALID,0,VALID,94.7507,VALID,0,VALID,24.2504,VALID,358,VALID,0.575,
2008-04-28, 03:35:04,VALID,1003.38,VALID,0,VALID,94.8346,VALID,0,VALID,24.192,VALID,296,VALID,1.2207,
2008-04-28, 03:36:04,VALID,1003.42,VALID,0,VALID,94.8499,VALID,0,VALID,24.1531,VALID,306,VALID,0.819141,
2008-04-28, 03:37:04,VALID,1003.41,VALID,0,VALID,94.7812,VALID,0,VALID,24.0947,VALID,308,VALID,1.24883,
2008-04-28, 03:38:04,VALID,1003.39,VALID,0,VALID,94.9109,VALID,0,VALID,24.0557,VALID,16,VALID,1.17656,
2008-04-28, 03:39:04,VALID,1003.41,VALID,0.5,VALID,95.0253,VALID,0,VALID,24.0168,VALID,331,VALID,0.701172,
2008-04-28, 03:40:04,VALID,1003.4,VALID,0,VALID,95.1016,VALID,0,VALID,23.9973,VALID,342,VALID,0.844141,
2008-04-28, 03:41:04,VALID,1003.4,VALID,0,VALID,95.155,VALID,0,VALID,23.9992,VALID,296,VALID,0.720312,
2008-04-28, 03:42:04,VALID,1003.41,VALID,0,VALID,95.1627,VALID,0,VALID,23.9389,VALID,347,VALID,0.697656,
2008-04-28, 03:43:04,VALID,1003.32,VALID,0.5,VALID,95.1855,VALID,0,VALID,23.9195,VALID,320,VALID,1.77148,